Seattle Boeing, WA

3:24 AM PDT on April 23, 2018 (GMT -0700)
Boeing Field-King County International

Weather History for KBFI - January, 2013

Change the Weather History Date:

Saturday, January 12, 2013

  Actual Average Record
Temperature  
Mean Temperature 32 °F -  
Max Temperature 39 °F 45 °F 59 °F (1986)
Min Temperature 26 °F 35 °F 13 °F (1963)
Degree Days  
Heating Degree Days 32    
Moisture  
Dew Point 24 °F    
Average Humidity 77    
Maximum Humidity 88    
Minimum Humidity 49    
Precipitation  
Precipitation 0.00 in - - ()
Sea Level Pressure  
Sea Level Pressure 30.38 in    
Wind  
Wind Speed 1 mph (North)    
Max Wind Speed 9 mph    
Max Gust Speed -    
Visibility 9 miles    
Events      
Averages and records for this station are not official NWS values.
T = Trace of Precipitation, MM = Missing Value Source: NWS Daily Summary

Daily Weather History Graph

Daily Weather History Graph

Search for Another Location

Airport or City:

Astronomy

Jan. 12, 2013 Rise Set
Actual Time 7:53 AM PST 4:41 PM PST
Civil Twilight 7:19 AM PST 5:16 PM PST
Nautical Twilight 6:40 AM PST 5:55 PM PST
Astronomical Twilight 6:03 AM PST 6:32 PM PST
Moon 8:09 AM PST (1/12) 6:26 PM PST (1/12)
Length of Visible Light 9h 57m
Length of Day
8h 47m
New Moon, 2% of the Moon is Illuminated
Jan 12
New Moon
Jan 18
First Quarter
Jan 26
Full
Feb 3
Last Quarter
Feb 9
New

Hourly Weather History & Observations

Time (PST) Temp. Windchill Dew Point Humidity Pressure Visibility Wind Dir Wind Speed Gust Speed Precip Events Conditions
12:53 AM 28.9 °F - 25.0 °F 85% 30.33 in 10.0 mi Calm Calm - N/A   Clear
1:53 AM 28.0 °F - 23.0 °F 81% 30.34 in 10.0 mi Calm Calm - N/A   Clear
2:53 AM 27.0 °F - 23.0 °F 85% 30.34 in 10.0 mi Calm Calm - N/A   Clear
3:53 AM 26.1 °F - 23.0 °F 88% 30.34 in 8.0 mi Calm Calm - N/A   Clear
4:53 AM 27.0 °F - 21.9 °F 81% 30.35 in 9.0 mi Calm Calm - N/A   Clear
5:17 AM 26.6 °F - 21.2 °F 80% 30.35 in 6.0 mi Calm Calm - N/A   Mostly Cloudy
5:44 AM 26.6 °F - 23.0 °F 86% 30.35 in 9.0 mi Calm Calm - N/A   Mostly Cloudy
5:53 AM 27.0 °F - 23.0 °F 85% 30.35 in 9.0 mi Calm Calm - N/A   Mostly Cloudy
6:00 AM 26.6 °F - 23.0 °F 86% 30.35 in 9.0 mi Calm Calm - N/A   Overcast
6:09 AM 26.6 °F - 21.2 °F 80% 30.35 in 9.0 mi Calm Calm - N/A   Overcast
6:51 AM 28.4 °F - 24.8 °F 86% 30.35 in 1.0 mi Calm Calm - N/A   Overcast
6:53 AM 28.0 °F - 25.0 °F 88% 30.35 in 1.0 mi Calm Calm - N/A   Overcast
7:53 AM 28.0 °F - 25.0 °F 88% 30.38 in 5.0 mi Calm Calm - N/A   Overcast
8:14 AM 28.4 °F - 24.8 °F 86% 30.38 in 7.0 mi Calm Calm - N/A   Overcast
8:53 AM 28.9 °F 25.2 °F 25.0 °F 85% 30.39 in 10.0 mi SE 3.5 mph - N/A   Mostly Cloudy
9:53 AM 30.9 °F - 27.0 °F 85% 30.40 in 10.0 mi Calm Calm - N/A   Mostly Cloudy
10:53 AM 33.1 °F - 28.0 °F 82% 30.40 in 10.0 mi Calm Calm - N/A   Scattered Clouds
11:53 AM 36.0 °F - 28.9 °F 76% 30.39 in 10.0 mi Calm Calm - N/A   Partly Cloudy
12:53 PM 37.9 °F 34.4 °F 26.1 °F 62% 30.38 in 10.0 mi North 4.6 mph - N/A   Partly Cloudy
1:53 PM 39.0 °F 35.7 °F 23.0 °F 53% 30.39 in 10.0 mi NW 4.6 mph - N/A   Mostly Cloudy
2:53 PM 39.0 °F 32.8 °F 21.0 °F 49% 30.40 in 10.0 mi NNW 9.2 mph - N/A   Partly Cloudy
3:53 PM 37.9 °F 35.5 °F 21.0 °F 51% 30.40 in 10.0 mi North 3.5 mph - N/A   Clear
4:53 PM 35.6 °F - 21.2 °F 56% 30.40 in 10.0 mi Calm Calm - N/A   Scattered Clouds
5:53 PM 34.0 °F 31.0 °F 21.9 °F 61% 30.40 in 10.0 mi ENE 3.5 mph - N/A   Mostly Cloudy
6:53 PM 32.0 °F - 24.1 °F 73% 30.42 in 10.0 mi Calm Calm - N/A   Scattered Clouds
7:53 PM 30.9 °F - 23.0 °F 72% 30.42 in 10.0 mi Calm Calm - N/A   Clear
8:53 PM 30.2 °F - 24.8 °F 80% 30.42 in 10.0 mi Calm Calm - N/A   Mostly Cloudy
9:53 PM 30.0 °F - 23.0 °F 75% 30.42 in 10.0 mi Calm Calm - N/A   Clear
10:53 PM 27.0 °F - 21.9 °F 81% 30.44 in 10.0 mi Calm Calm - N/A   Clear
11:53 PM 28.0 °F - 23.0 °F 81% 30.45 in 10.0 mi Calm Calm - N/A   Clear